Weather History for MHRO - October, 2013

Change the Weather History Date:

Friday, October 4, 2013

  Actual Average Record
Temperature  
Mean Temperature 85 °F -  
Max Temperature 90 °F 85 °F 91 °F (1996)
Min Temperature 80 °F 76 °F 73 °F (2007)
Cooling Degree Days 20    
Growing Degree Days 35 (Base 50)    
Moisture  
Dew Point 74 °F    
Average Humidity 65    
Maximum Humidity 74    
Minimum Humidity 49    
Precipitation  
Precipitation 0.00 in - - ()
Sea Level Pressure  
Sea Level Pressure 29.87 in    
Wind  
Wind Speed 12 mph ()    
Max Wind Speed 16 mph    
Max Gust Speed -    
Visibility 6.1 miles    
Events      
Averages and records for this station are not official NWS values.
T = Trace of Precipitation, MM = Missing Value Source: Averaged Metar Reports

Daily Weather History Graph

Daily Weather History Graph

Search for Another Location

Airport or City:

Trip Planner

Search our weather history database for the weather conditions in past years. The results will help you decide how hot, cold, wet, or windy it might be!

Date:

Astronomy

Oct. 04, 2013 Rise Set
Actual Time 5:36 AM CST 5:32 PM CST
Civil Twilight 5:15 AM CST 5:54 PM CST
Nautical Twilight 4:49 AM CST 6:19 PM CST
Astronomical Twilight 4:24 AM CST 6:44 PM CST
Moon 5:10 AM CST (10/4) 5:20 PM CST (10/4)
Length of Visible Light 12h 39m
Length of Day
11h 56m
Waning Crescent, 0% of the Moon is Illuminated
Oct 4
Waning Crescent
Oct 4
New
Oct 11
First Quarter
Oct 18
Full
Oct 26
Last Quarter

Hourly Weather History & Observations

Time (CST) Temp. Heat Index Dew Point Humidity Pressure Visibility Wind Dir Wind Speed Gust Speed Precip Events Conditions
6:00 AM 83 °F - 74 °F 68% 29.87 in 6 mi East 12.7 mph - -   Haze
6:00 AM 84.2 °F 90.9 °F 73.4 °F 70% 29.86 in 6.2 mi East 12.7 mph - N/A   Mostly Cloudy
7:00 AM 84.2 °F 90.9 °F 73.4 °F 70% 29.86 in 6.2 mi East 16.1 mph - N/A   Mostly Cloudy
8:00 AM 86.0 °F 95.1 °F 75.2 °F 70% 29.89 in 6.2 mi East 16.1 mph - N/A   Mostly Cloudy
9:00 AM 88 °F - 74 °F 56% 29.91 in 6 mi East 15.0 mph - -   Haze
9:00 AM 87.8 °F 97.6 °F 75.2 °F 66% 29.89 in 6.2 mi East 15.0 mph - N/A   Mostly Cloudy
10:00 AM 87.8 °F 97.6 °F 75.2 °F 66% 29.92 in 6.2 mi East 13.8 mph - N/A   Mostly Cloudy
11:00 AM 89.6 °F 99.8 °F 75.2 °F 62% 29.89 in 6.2 mi East 15.0 mph - N/A   Scattered Clouds
12:00 PM 89 °F - - % 29.89 in 6 mi East 13.8 mph - -   Haze
12:00 PM 89.6 °F 102.2 °F 77.0 °F 66% 29.86 in 6.2 mi East 12.7 mph - N/A   Partly Cloudy
1:00 PM 89.6 °F 99.8 °F 75.2 °F 62% 29.86 in 6.2 mi East 13.8 mph - N/A   Scattered Clouds
2:00 PM 89.6 °F 98.2 °F 73.4 °F 59% 29.83 in 6.2 mi East 16.1 mph - N/A   Scattered Clouds
3:00 PM 90 °F - 73 °F 49% 29.83 in 6 mi East 13.8 mph - -   Haze
3:00 PM 89.6 °F 98.2 °F 73.4 °F 59% 29.83 in 6.2 mi East 13.8 mph - N/A   Scattered Clouds
4:00 PM 89.6 °F 98.2 °F 73.4 °F 59% 29.83 in 6.2 mi ENE 12.7 mph - N/A   Mostly Cloudy
5:00 PM 86.0 °F 93.4 °F 73.4 °F 66% 29.83 in 6.2 mi NE 11.5 mph - N/A   Scattered Clouds
6:00 PM 85 °F - 74 °F 62% 29.86 in 6 mi ENE 11.5 mph - -   Haze
6:00 PM 84.2 °F 90.9 °F 73.4 °F 70% 29.86 in 6.2 mi ENE 11.5 mph - N/A   Mostly Cloudy
7:00 PM 84.2 °F 92.3 °F 75.2 °F 74% 29.89 in 6.2 mi ENE 15.0 mph - N/A   Scattered Clouds
8:00 PM 84.2 °F 92.3 °F 75.2 °F 74% 29.92 in 6.2 mi ENE 13.8 mph - N/A   Scattered Clouds